Powrót do katalogu

STARLINK-3848

AktywnyŁącznośćVLEO
NORAD 52362·PAYLOAD·🇺🇸 United States

Wystrzelony Apr 29, 2022 z Cape Canaveral Space Force Station

Loading…

Następne Przeloty (najbliższe 24 godziny)

TLE

ŚwieżeSource: CelesTrak SupGP

Epoka: Sep 15, 2026, 02:00 UTC

1 52362C 22045AH  26258.08381944 -.00056056  00000+0 -18028-2 0  2583
2 52362  53.1602  44.6685 0001168  78.4163 340.4319 15.31726739    14

Śledź STARLINK-3848 w czasie rzeczywistym z AllMySat

Download on the App Store